Louisville Bowman, KY

5:08 AM EST on December 07, 2019 (GMT -0500)
Bowman

Weather History for KLOU - May, 2019

Change the Weather History Date:

Thursday, May 9, 2019

  Actual Average Record
Temperature  
Mean Temperature 71 °F 64 °F  
Max Temperature 77 °F 74 °F 89 °F (1963)
Min Temperature 65 °F 54 °F 36 °F (1966)
Degree Days  
Heating Degree Days 0 3  
Month to date heating degree days 7 34  
Since 1 July heating degree days 4061 4225  
Cooling Degree Days 6 2  
Month to date cooling degree days 30 17  
Year to date cooling degree days 47 51  
Growing Degree Days 22 (Base 50)    
Moisture  
Dew Point 62 °F    
Average Humidity 74    
Maximum Humidity 87    
Minimum Humidity 60    
Precipitation  
Precipitation T in 0.17 in 2.23 in (1950)
Month to date precipitation 1.79 1.64  
Year to date precipitation 25.20 16.44  
Sea Level Pressure  
Sea Level Pressure 29.86 in    
Wind  
Wind Speed 12 mph (South)    
Max Wind Speed 25 mph    
Max Gust Speed 35 mph    
Visibility 10 miles    
Events Rain    
T = Trace of Precipitation, MM = Missing Value Source: NWS Daily Summary

Daily Weather History Graph

Daily Weather History Graph

Search for Another Location

Airport or City:

Astronomy

May. 09, 2019 Rise Set
Actual Time 6:37 AM EDT 8:41 PM EDT
Civil Twilight 6:08 AM EDT 9:10 PM EDT
Nautical Twilight 5:32 AM EDT 9:46 PM EDT
Astronomical Twilight 4:54 AM EDT 10:24 PM EDT
Moon 10:33 AM EDT (5/9) 12:38 AM EDT (5/9)
Length of Visible Light 15h 01m
Length of Day
14h 03m
Waxing Crescent, 24% of the Moon is Illuminated
May 9
Waxing Crescent
May 11
First Quarter
May 18
Full
May 26
Last Quarter
Jun 3
New

Hourly Weather History & Observations

Time (EDT) Temp. Dew Point Humidity Pressure Visibility Wind Dir Wind Speed Gust Speed Precip Events Conditions
12:53 AM 75.0 °F 60.1 °F 60% 29.86 in 10.0 mi SSE 9.2 mph - N/A   Clear
1:53 AM 75.0 °F 60.1 °F 60% 29.85 in 10.0 mi SSE 11.5 mph - N/A   Clear
2:53 AM 73.9 °F 60.1 °F 62% 29.85 in 10.0 mi SSE 9.2 mph - N/A   Clear
3:53 AM 75.9 °F 60.1 °F 58% 29.82 in 10.0 mi SSE 18.4 mph 25.3 mph N/A   Clear
4:53 AM 75.9 °F 60.1 °F 58% 29.81 in 10.0 mi SSE 12.7 mph 21.9 mph N/A   Clear
5:53 AM 75.0 °F 61.0 °F 62% 29.80 in 10.0 mi SSE 16.1 mph 26.5 mph N/A   Mostly Cloudy
6:53 AM 75.0 °F 61.0 °F 62% 29.81 in 10.0 mi South 15.0 mph 25.3 mph 0.00 in   Overcast
7:53 AM 75.9 °F 62.1 °F 62% 29.82 in 10.0 mi South 18.4 mph 25.3 mph N/A   Overcast
8:53 AM 75.9 °F 62.1 °F 62% 29.84 in 10.0 mi South 19.6 mph 28.8 mph 0.00 in   Overcast
9:53 AM 75.9 °F 62.1 °F 62% 29.85 in 10.0 mi SSW 19.6 mph 29.9 mph N/A   Overcast
10:53 AM 75.9 °F 62.1 °F 62% 29.87 in 10.0 mi SSW 15.0 mph 21.9 mph N/A   Overcast
11:53 AM 73.9 °F 60.1 °F 62% 29.89 in 10.0 mi SW 17.3 mph 26.5 mph 0.00 in   Overcast
12:53 PM 73.0 °F 61.0 °F 66% 29.90 in 10.0 mi SSW 12.7 mph 25.3 mph 0.00 in Rain Light Rain
1:53 PM 75.0 °F 62.1 °F 64% 29.87 in 9.0 mi South 12.7 mph 24.2 mph 0.00 in   Scattered Clouds
2:53 PM 73.0 °F 62.1 °F 68% 29.87 in 10.0 mi South 18.4 mph 26.5 mph 0.00 in Rain Light Rain
3:53 PM 71.1 °F 63.0 °F 75% 29.89 in 10.0 mi SSW 9.2 mph - 0.00 in Rain Light Rain
4:53 PM 71.1 °F 62.1 °F 73% 29.88 in 10.0 mi South 9.2 mph - 0.00 in Rain Light Rain
5:53 PM 72.0 °F 62.1 °F 71% 29.86 in 10.0 mi Variable 6.9 mph - 0.00 in   Overcast
6:53 PM 72.0 °F 62.1 °F 71% 29.86 in 10.0 mi South 5.8 mph - N/A   Mostly Cloudy
7:53 PM 71.1 °F 62.1 °F 73% 29.86 in 10.0 mi South 6.9 mph - N/A   Mostly Cloudy
8:53 PM 69.1 °F 62.1 °F 78% 29.87 in 10.0 mi SSE 6.9 mph - N/A   Mostly Cloudy
9:20 PM 69.1 °F 63.0 °F 81% 29.89 in 10.0 mi South 5.8 mph - N/A   Mostly Cloudy
9:53 PM 68.0 °F 63.0 °F 84% 29.88 in 10.0 mi South 6.9 mph - N/A   Partly Cloudy
10:53 PM 68.0 °F 62.1 °F 81% 29.91 in 10.0 mi SSW 8.1 mph - N/A   Clear
11:53 PM 66.9 °F 62.1 °F 84% 29.91 in 10.0 mi SSW 8.1 mph - N/A   Clear